Location: Beneden-Haastrecht
(52.0012°N, 4.7557°E)
Time: 03:12:38
(UTC+00:00)

NOSS 3-4 (A) - Pass Details

Date: 24 October 2020
Orbit: 885 x 1327 km, 63.4° (Epoch: 06 November)

Event Time Altitude Azimuth Distance (km) Brightness Sun altitude
Rises 17:53:20 0° 305° (NW) 3,675 7.4 -13.8°
Reaches altitude 10° 17:56:01 10° 313° (NW) 2,783 6.5 -14.2°
Maximum altitude 18:02:10 40° 22° (NNE) 1,553 4.4 -15.2°
Enters shadow 18:06:20 22° 78° (ENE) 2,276 4.8 -15.8°
